Regional Weather Roundup
Issued by NWS

Home | Current Version | Previous Version | Graphics & Text | Print | Product List | Glossary On
Versions: 1 2 3 4 5 6 7 8 9 10 11 12 13 14 15 16 17 18 19 20 21 22 23 24 25 26 27 28 29 30 31 32 33 34 35 36 37 38 39 40 41 42 43 44 45 46 47 48 49 50
000
ASUS43 KMKX 221020
RWRWI

WISCONSIN REGIONAL WEATHER ROUNDUP
NATIONAL WEATHER SERVICE MILWAUKEE/SULLIVAN WI
500 AM CDT SUN APR 22 2018

NOTE: "FAIR" INDICATES FEW OR NO CLOUDS BELOW 12,000 FEET WITH NO
SIGNIFICANT WEATHER AND/OR OBSTRUCTIONS TO VISIBILITY.

WIZ001-002-006>008-014>016-023>028-221100-
NORTHWEST WISCONSIN

CITY           SKY/WX    TMP DP  RH WIND       PRES   REMARKS
SUPERIOR ARPT  FAIR      23  22  93 CALM      30.36R
ASHLAND        FAIR      26  21  81 SW5       30.34S WCI  20
HAYWARD        FAIR      25  20  81 NE3       30.34S
SIREN          FAIR      26  20  78 CALM      30.34S
CUMBERLAND     FAIR      28  19  69 CALM      30.34S
RICE LAKE      FAIR      27  26  94 CALM      30.35S
CHETEK         FAIR      26  23  88 CALM      30.35R
LADYSMITH      FAIR      31  26  81 NE5       30.35S WCI  26
EAU CLAIRE     FAIR      30  27  88 CALM      30.34R
MENOMONIE      FAIR      33  29  83 CALM      30.35R
NEW RICHMOND   FAIR      31  28  88 CALM      30.33S
OSCEOLA        FAIR      30  26  84 CALM      30.36S
$$

WIZ003>005-009-010-017-018-221100-
NORTH CENTRAL WISCONSIN

CITY           SKY/WX    TMP DP  RH WIND       PRES   REMARKS
MANITOWISH WTR FAIR      21  20  96 CALM      30.34S
ARBOR VITAE    FAIR      26  20  77 CALM      30.34S
WOODRUFF       FAIR      26  20  77 CALM      30.34S
RHINELANDER    FAIR      27  23  85 W3        30.34S
EAGLE RIVER    FAIR      23  18  82 CALM      30.34S
LAND O LAKES   FAIR      21  19  93 CALM      30.36S
PHILLIPS       FAIR      24  22  92 CALM      30.34S
TOMAHAWK       FAIR      23  20  89 CALM      30.36S
MEDFORD        FAIR      27  24  89 NE3       30.33F
MERRILL          N/A     25  23  92 CALM      30.36S
$$

WIZ029-030-035-036-043>047-221100-
CENTRAL WISCONSIN

CITY           SKY/WX    TMP DP  RH WIND       PRES   REMARKS
WAUSAU         FAIR      28  26  92 CALM      30.33F
MOSINEE        FAIR      32  27  80 CALM      30.36S
MARSHFIELD     FAIR      33  27  78 CALM      30.33S
STEVENS POINT  FAIR      25  24  96 CALM      30.37S
WAUPACA        FAIR      29  27  91 CALM      30.38R
WAUTOMA        FAIR      27  25  92 CALM      30.37R
WISC RAPIDS    FAIR      29  23  78 CALM      30.36S
CAMP DOUGLAS   FAIR      28  27  96 CALM      30.35R
$$

WIZ011>013-019>022-031-037>040-048>050-221100-
NORTHEAST WISCONSIN

CITY           SKY/WX    TMP DP  RH WIND       PRES   REMARKS
ANTIGO         FAIR      28  27  94 NE3       30.35S
SHAWANO        FAIR      29  26  86 CALM      30.37S
OCONTO         FAIR      26  22  83 CALM      30.37S
STURGEON BAY   FAIR      33  21  61 S5        30.38S WCI  29
GREEN BAY      FAIR      31  25  78 S3        30.38R
MANITOWOC      FAIR      27  24  89 NW3       30.39R
APPLETON       FAIR      34  27  75 CALM      30.36R
CLINTONVILLE   FAIR      27  24  89 CALM      30.37S
OSHKOSH        FAIR      32  30  92 CALM      30.37R
$$

WIZ032>034-041-042-053>061-221100-
SOUTHWEST WISCONSIN

CITY           SKY/WX    TMP DP  RH WIND       PRES   REMARKS
LA CROSSE      MOCLDY    37  32  82 CALM      30.35R
SPARTA         FAIR      26  25  95 CALM      30.37R
VIROQUA        MOCLDY    39  32  75 E5        30.34S
BOSCOBEL       CLOUDY    39  35  86 CALM      30.35S
PRAIRIE DU CHI FAIR      39  33  80 CALM      30.34S
PLATTEVILLE    CLOUDY    43  31  62 E6        30.34S
$$

WIZ056-057-062-063-064-067-068-221100-
SOUTH CENTRAL WISCONSIN

CITY           SKY/WX    TMP DP  RH WIND       PRES   REMARKS
REEDSBURG      FAIR      32  32 100 CALM      30.36R
BARABOO/DELLS  FAIR      31  28  88 CALM      30.35R
LONE ROCK      FAIR      37  35  92 CALM      30.36R
MINERAL POINT  FAIR      43  30  61 CALM      30.33F
MADISON        FAIR      35  32  88 CALM      30.35R
MIDDLETON      FAIR      37  34  90 CALM      30.36R
WATERTOWN      FAIR      32  29  88 CALM      30.35R
MONROE         FAIR      41  21  45 E5        30.33S
JANESVILLE     MOCLDY    39  30  70 CALM      30.34S
$$

WIZ051-052-058>065-066-070>072-221100-
SOUTHEAST WISCONSIN

CITY           SKY/WX    TMP DP  RH WIND       PRES   REMARKS
MILWAUKEE      MOCLDY    36  22  56 CALM      30.36S
WAUKESHA       FAIR      32  23  69 CALM      30.37R
MILWAUKEE/TIMM FAIR      32  23  69 CALM      30.37R
RACINE         FAIR      35  25  66 CALM      30.37S
BURLINGTON     FAIR      35  29  79 CALM      30.35S
KENOSHA        FAIR      40  26  57 CALM      30.35S
FOND DU LAC    FAIR      30  26  85 CALM      30.37R
SHEBOYGAN      FAIR      31  28  89 NW3       30.37R
WEST BEND      FAIR      28  27  93 CALM      30.36F
JUNEAU         FAIR      33  27  79 CALM      30.37R
$$

LSZ147-162-221100-
LAKE SUPERIOR

STATION/POSITION TIME  TEMP    WIND        PRES    WAVE
                       AIR SEA DIR/SP/G            HT/PER
                 (UTC) (F)     (DEG/KT/KT) (MB)    (FT/S)
DEVILS ISLAND    1000   36     100/  8/  9 1028.4R
SAXON HARBOR     0940   27     200/  3/  4 1026.8S
$$

LMZ867-665-643>646-221100-
LAKE MICHIGAN

STATION/POSITION TIME  TEMP    WIND        PRES    WAVE
                       AIR SEA DIR/SP/G            HT/PER
                 (UTC) (F)     (DEG/KT/KT) (MB)    (FT/S)
NORTHPORT PIER   0940   38                 1028.1F
KEWAUNEE LAKESHO 0954   30     300/  6/  6 1027.8S
SHEBOYGAN LAKESH 1000   37      20/  4/  4 1029.1R
PORT WASHINGTON  0930   33     300/  2/  3 1029.1S
MILWAUKEE LAKESH 1000   38      20/  4/  4   N/A
KENOSHA   LAKESH 1000   39                 1028.1
$$

TC  - TEMPERATURE IN CELSIUS
VSB - VISIBILITY IN STATUTE MILES
WCI - WIND CHILL INDEX
HX  - HEAT INDEX




USA.gov is the U.S. government's official web portal to all federal, state and local government web resources and services.